Terminal Aerodrome Forecast
Issued by NWS

Home | Current Version | Previous Version | Text Only | Print | Product List | Glossary On
Versions: 1 2 3 4 5 6 7 8 9 10 11 12 13 14 15 16 17 18
000
FTAK31 PAJN 191509 AAA
TAFAGY
TAF AMD
PAGY 191509Z 1915/2012 04017G25KT P6SM -SN SCT025 OVC050
     FM191700 21015G25KT P6SM VCSH SCT030 OVC050
     FM200000 21012KT P6SM VCSH SCT030 OVC050
      AMD LTD TO CLD VIS AND WIND=

USA.gov is the U.S. government's official web portal to all federal, state and local government web resources and services.